Year,Month,Day,Hour,Minute,Value (Times are PST for temperature in C)
2016,07,24,00,00,15.30
2016,07,24,00,01,15.30
2016,07,24,00,02,15.30
2016,07,24,00,03,15.30
2016,07,24,00,04,15.20
2016,07,24,00,05,15.20
2016,07,24,00,06,15.20
2016,07,24,00,07,15.20
2016,07,24,00,08,15.20
2016,07,24,00,09,15.20
2016,07,24,00,10,15.20
2016,07,24,00,11,15.20
2016,07,24,00,12,15.20
2016,07,24,00,13,15.10
2016,07,24,00,14,15.10
2016,07,24,00,15,15.10
2016,07,24,00,16,15.10
2016,07,24,00,17,15.10
2016,07,24,00,18,15.10
2016,07,24,00,19,15.10
2016,07,24,00,20,15.10
2016,07,24,00,21,15.10
2016,07,24,00,22,15.10
2016,07,24,00,23,15.10
2016,07,24,00,24,15.10
2016,07,24,00,25,15.10
2016,07,24,00,26,15.00
2016,07,24,00,27,15.00
2016,07,24,00,28,15.00
2016,07,24,00,29,15.00
2016,07,24,00,30,15.10
2016,07,24,00,31,15.10
2016,07,24,00,32,15.10
2016,07,24,00,33,15.10
2016,07,24,00,34,15.10
2016,07,24,00,35,15.10
2016,07,24,00,36,15.10
2016,07,24,00,37,15.00
2016,07,24,00,38,15.00
2016,07,24,00,39,15.00
2016,07,24,00,40,15.00
2016,07,24,00,41,15.00
2016,07,24,00,42,14.90
2016,07,24,00,43,14.90
2016,07,24,00,44,14.90
2016,07,24,00,45,14.90
2016,07,24,00,46,14.90
2016,07,24,00,47,14.90
2016,07,24,00,48,14.90
2016,07,24,00,49,14.90
2016,07,24,00,50,14.80
2016,07,24,00,51,14.80
2016,07,24,00,52,14.80
2016,07,24,00,53,14.80
2016,07,24,00,54,14.80
2016,07,24,00,55,14.80
2016,07,24,00,56,14.70
2016,07,24,00,57,14.70
2016,07,24,00,58,14.70
2016,07,24,00,59,14.70
2016,07,24,01,00,14.70
2016,07,24,01,01,14.60
2016,07,24,01,02,14.60
2016,07,24,01,03,14.60
2016,07,24,01,04,14.60
2016,07,24,01,05,14.60
2016,07,24,01,06,14.60
2016,07,24,01,07,14.60
2016,07,24,01,08,14.60
2016,07,24,01,09,14.50
2016,07,24,01,10,14.50
2016,07,24,01,11,14.50
2016,07,24,01,12,14.50
2016,07,24,01,13,14.50
2016,07,24,01,14,14.50
2016,07,24,01,15,14.40
2016,07,24,01,16,14.40
2016,07,24,01,17,14.40
2016,07,24,01,18,14.40
2016,07,24,01,19,14.40
2016,07,24,01,20,14.40
2016,07,24,01,21,14.40
2016,07,24,01,22,14.40
2016,07,24,01,23,14.40
2016,07,24,01,24,14.30
2016,07,24,01,25,14.30
2016,07,24,01,26,14.30
2016,07,24,01,27,14.30
2016,07,24,01,28,14.30
2016,07,24,01,29,14.30
2016,07,24,01,30,14.30
2016,07,24,01,31,14.30
2016,07,24,01,32,14.30
2016,07,24,01,33,14.30
2016,07,24,01,34,14.30
2016,07,24,01,35,14.30
2016,07,24,01,36,14.30
2016,07,24,01,37,14.30
2016,07,24,01,38,14.30
2016,07,24,01,39,14.30
2016,07,24,01,40,14.30
2016,07,24,01,41,14.30
2016,07,24,01,42,14.30
2016,07,24,01,43,14.30
2016,07,24,01,44,14.30
2016,07,24,01,45,14.20
2016,07,24,01,46,14.20
2016,07,24,01,47,14.20
2016,07,24,01,48,14.20
2016,07,24,01,49,14.20
2016,07,24,01,50,14.20
2016,07,24,01,51,14.20
2016,07,24,01,52,14.20
2016,07,24,01,53,14.20
2016,07,24,01,54,14.20
2016,07,24,01,55,14.20
2016,07,24,01,56,14.20
2016,07,24,01,57,14.20
2016,07,24,01,58,14.20
2016,07,24,01,59,14.20
2016,07,24,02,00,14.20
2016,07,24,02,01,14.20
2016,07,24,02,02,14.10
2016,07,24,02,03,14.10
2016,07,24,02,04,14.10
2016,07,24,02,05,14.10
2016,07,24,02,06,14.00
2016,07,24,02,07,14.00
2016,07,24,02,08,14.00
2016,07,24,02,09,13.90
2016,07,24,02,10,13.90
2016,07,24,02,11,14.00
2016,07,24,02,12,13.90
2016,07,24,02,13,14.00
2016,07,24,02,14,14.00
2016,07,24,02,15,14.00
2016,07,24,02,16,14.00
2016,07,24,02,17,14.00
2016,07,24,02,18,13.90
2016,07,24,02,19,13.90
2016,07,24,02,20,13.90
2016,07,24,02,21,14.00
2016,07,24,02,22,14.00
2016,07,24,02,23,14.00
2016,07,24,02,24,14.10
2016,07,24,02,25,14.20
2016,07,24,02,26,14.20
2016,07,24,02,27,14.30
2016,07,24,02,28,14.30
2016,07,24,02,29,14.40
2016,07,24,02,30,14.40
2016,07,24,02,31,14.50
2016,07,24,02,32,14.50
2016,07,24,02,33,14.50
2016,07,24,02,34,14.50
2016,07,24,02,35,14.60
2016,07,24,02,36,14.60
2016,07,24,02,37,14.60
2016,07,24,02,38,14.60
2016,07,24,02,39,14.60
2016,07,24,02,40,14.60
2016,07,24,02,41,14.60
2016,07,24,02,42,14.60
2016,07,24,02,43,14.60
2016,07,24,02,44,14.60
2016,07,24,02,45,14.60
2016,07,24,02,46,14.70
2016,07,24,02,47,14.70
2016,07,24,02,48,14.70
2016,07,24,02,49,14.70
2016,07,24,02,50,14.70
2016,07,24,02,51,14.70
2016,07,24,02,52,14.70
2016,07,24,02,53,14.70
2016,07,24,02,54,14.70
2016,07,24,02,55,14.70
2016,07,24,02,56,14.70
2016,07,24,02,57,14.70
2016,07,24,02,58,14.70
2016,07,24,02,59,14.70
2016,07,24,03,00,14.60
2016,07,24,03,01,14.60
2016,07,24,03,02,14.60
2016,07,24,03,03,14.60
2016,07,24,03,04,14.50
2016,07,24,03,05,14.50
2016,07,24,03,06,14.40
2016,07,24,03,07,14.40
2016,07,24,03,08,14.40
2016,07,24,03,09,14.40
2016,07,24,03,10,14.40
2016,07,24,03,11,14.40
2016,07,24,03,12,14.40
2016,07,24,03,13,14.30
2016,07,24,03,14,14.30
2016,07,24,03,15,14.30
2016,07,24,03,16,14.30
2016,07,24,03,17,14.30
2016,07,24,03,18,14.30
2016,07,24,03,19,14.30
2016,07,24,03,20,14.30
2016,07,24,03,21,14.30
2016,07,24,03,22,14.30
2016,07,24,03,23,14.20
2016,07,24,03,24,14.20
2016,07,24,03,25,14.20
2016,07,24,03,26,14.20
2016,07,24,03,27,14.20
2016,07,24,03,28,14.30
2016,07,24,03,29,14.30
2016,07,24,03,30,14.30
2016,07,24,03,31,14.30
2016,07,24,03,32,14.30
2016,07,24,03,33,14.30
2016,07,24,03,34,14.30
2016,07,24,03,35,14.30
2016,07,24,03,36,14.30
2016,07,24,03,37,14.30
2016,07,24,03,38,14.30
2016,07,24,03,39,14.30
2016,07,24,03,40,14.30
2016,07,24,03,41,14.30
2016,07,24,03,42,14.30
2016,07,24,03,43,14.30
2016,07,24,03,44,14.30
2016,07,24,03,45,14.30
2016,07,24,03,46,14.30
2016,07,24,03,47,14.30
2016,07,24,03,48,14.30
2016,07,24,03,49,14.30
2016,07,24,03,50,14.30
2016,07,24,03,51,14.30
2016,07,24,03,52,14.30
2016,07,24,03,53,14.30
2016,07,24,03,54,14.30
2016,07,24,03,55,14.40
2016,07,24,03,56,14.40
2016,07,24,03,57,14.40
2016,07,24,03,58,14.40
2016,07,24,03,59,14.40
2016,07,24,04,00,14.40
2016,07,24,04,01,14.40
2016,07,24,04,02,14.40
2016,07,24,04,03,14.40
2016,07,24,04,05,14.40
2016,07,24,04,06,14.40
2016,07,24,04,07,14.30
2016,07,24,04,08,14.30
2016,07,24,04,09,14.30
2016,07,24,04,10,14.30
2016,07,24,04,11,14.20
2016,07,24,04,12,14.20
2016,07,24,04,13,14.20
2016,07,24,04,14,14.10
2016,07,24,04,15,14.10
2016,07,24,04,16,14.00
2016,07,24,04,17,13.90
2016,07,24,04,18,13.90
2016,07,24,04,19,13.80
2016,07,24,04,20,13.80
2016,07,24,04,21,13.80
2016,07,24,04,22,13.80
2016,07,24,04,23,13.70
2016,07,24,04,24,13.70
2016,07,24,04,25,13.70
2016,07,24,04,26,13.60
2016,07,24,04,27,13.60
2016,07,24,04,28,13.50
2016,07,24,04,29,13.50
2016,07,24,04,30,13.40
2016,07,24,04,31,13.40
2016,07,24,04,32,13.30
2016,07,24,04,33,13.30
2016,07,24,04,34,13.30
2016,07,24,04,35,13.20
2016,07,24,04,36,13.20
2016,07,24,04,37,13.20
2016,07,24,04,38,13.20
2016,07,24,04,39,13.20
2016,07,24,04,40,13.20
2016,07,24,04,41,13.10
2016,07,24,04,42,13.10
2016,07,24,04,43,13.10
2016,07,24,04,44,13.10
2016,07,24,04,45,13.10
2016,07,24,04,46,13.00
2016,07,24,04,47,13.00
2016,07,24,04,48,13.00
2016,07,24,04,49,13.00
2016,07,24,04,50,13.00
2016,07,24,04,51,13.00
2016,07,24,04,52,12.90
2016,07,24,04,53,12.90
2016,07,24,04,54,12.90
2016,07,24,04,55,12.90
2016,07,24,04,56,12.90
2016,07,24,04,57,12.90
2016,07,24,04,58,12.90
2016,07,24,04,59,12.90
2016,07,24,05,00,12.90
2016,07,24,05,01,12.90
2016,07,24,05,02,12.80
2016,07,24,05,03,12.80
2016,07,24,05,04,12.80
2016,07,24,05,05,12.80
2016,07,24,05,06,12.80
2016,07,24,05,07,12.90
2016,07,24,05,08,12.90
2016,07,24,05,09,12.90
2016,07,24,05,10,13.00
2016,07,24,05,11,13.00
2016,07,24,05,12,13.10
2016,07,24,05,13,13.00
2016,07,24,05,14,13.10
2016,07,24,05,15,13.00
2016,07,24,05,16,13.00
2016,07,24,05,17,12.90
2016,07,24,05,18,12.90
2016,07,24,05,19,12.90
2016,07,24,05,20,12.90
2016,07,24,05,21,12.90
2016,07,24,05,22,12.80
2016,07,24,05,23,12.80
2016,07,24,05,24,12.80
2016,07,24,05,25,12.80
2016,07,24,05,26,12.80
2016,07,24,05,27,12.80
2016,07,24,05,28,12.80
2016,07,24,05,29,12.80
2016,07,24,05,30,12.80
2016,07,24,05,31,12.80
2016,07,24,05,32,12.90
2016,07,24,05,33,12.90
2016,07,24,05,34,12.90
2016,07,24,05,35,12.90
2016,07,24,05,36,12.90
2016,07,24,05,37,12.90
2016,07,24,05,38,13.00
2016,07,24,05,39,13.00
2016,07,24,05,40,13.00
2016,07,24,05,41,13.00
2016,07,24,05,42,13.10
2016,07,24,05,43,13.10
2016,07,24,05,44,13.10
2016,07,24,05,45,13.10
2016,07,24,05,46,13.10
2016,07,24,05,47,13.10
2016,07,24,05,48,13.10
2016,07,24,05,49,13.10
2016,07,24,05,50,13.10
2016,07,24,05,51,13.10
2016,07,24,05,52,13.10
2016,07,24,05,53,13.20
2016,07,24,05,54,13.20
2016,07,24,05,55,13.20
2016,07,24,05,56,13.20
2016,07,24,05,57,13.20
2016,07,24,05,58,13.20
2016,07,24,05,59,13.30
2016,07,24,06,00,13.30
2016,07,24,06,01,13.30
2016,07,24,06,02,13.30
2016,07,24,06,03,13.30
2016,07,24,06,04,13.40
2016,07,24,06,05,13.40
2016,07,24,06,06,13.50
2016,07,24,06,07,13.50
2016,07,24,06,08,13.50
2016,07,24,06,09,13.60
2016,07,24,06,10,13.60
2016,07,24,06,11,13.60
2016,07,24,06,12,13.70
2016,07,24,06,13,13.70
2016,07,24,06,14,13.70
2016,07,24,06,15,13.70
2016,07,24,06,16,13.70
2016,07,24,06,17,13.70
2016,07,24,06,18,13.70
2016,07,24,06,19,13.70
2016,07,24,06,20,13.70
2016,07,24,06,21,13.70
2016,07,24,06,22,13.70
2016,07,24,06,23,13.70
2016,07,24,06,24,13.70
2016,07,24,06,25,13.80
2016,07,24,06,26,13.80
2016,07,24,06,27,13.80
2016,07,24,06,28,13.80
2016,07,24,06,29,13.90
2016,07,24,06,30,13.90
2016,07,24,06,31,13.90
2016,07,24,06,32,13.90
2016,07,24,06,33,13.90
2016,07,24,06,34,13.90
2016,07,24,06,35,14.00
2016,07,24,06,36,14.00
2016,07,24,06,37,14.00
2016,07,24,06,38,14.10
2016,07,24,06,39,14.10
2016,07,24,06,40,14.10
2016,07,24,06,41,14.10
2016,07,24,06,42,14.20
2016,07,24,06,43,14.20
2016,07,24,06,44,14.20
2016,07,24,06,45,14.20
2016,07,24,06,46,14.30
2016,07,24,06,47,14.30
2016,07,24,06,48,14.30
2016,07,24,06,49,14.40
2016,07,24,06,50,14.40
2016,07,24,06,51,14.50
2016,07,24,06,52,14.50
2016,07,24,06,53,14.60
2016,07,24,06,54,14.60
2016,07,24,06,55,14.60
2016,07,24,06,56,14.60
2016,07,24,06,57,14.70
2016,07,24,06,58,14.70
2016,07,24,06,59,14.80
2016,07,24,07,00,14.80
2016,07,24,07,01,14.90
2016,07,24,07,02,14.90
2016,07,24,07,03,15.00
2016,07,24,07,04,15.00
2016,07,24,07,05,15.00
2016,07,24,07,06,15.00
2016,07,24,07,07,15.00
2016,07,24,07,08,15.10
2016,07,24,07,09,15.10
2016,07,24,07,10,15.10
2016,07,24,07,11,15.10
2016,07,24,07,12,15.10
2016,07,24,07,13,15.20
2016,07,24,07,14,15.20
2016,07,24,07,15,15.20
2016,07,24,07,16,15.20
2016,07,24,07,17,15.20
2016,07,24,07,18,15.20
2016,07,24,07,19,15.20
2016,07,24,07,20,15.20
2016,07,24,07,21,15.20
2016,07,24,07,22,15.20
2016,07,24,07,23,15.20
2016,07,24,07,24,15.20
2016,07,24,07,25,15.30
2016,07,24,07,26,15.30
2016,07,24,07,27,15.30
2016,07,24,07,28,15.40
2016,07,24,07,29,15.40
2016,07,24,07,30,15.50
2016,07,24,07,31,15.60
2016,07,24,07,32,15.60
2016,07,24,07,33,15.60
2016,07,24,07,34,15.70
2016,07,24,07,35,15.70
2016,07,24,07,36,15.80
2016,07,24,07,37,15.80
2016,07,24,07,38,15.90
2016,07,24,07,39,16.00
2016,07,24,07,40,16.20
2016,07,24,07,41,16.30
2016,07,24,07,42,16.40
2016,07,24,07,43,16.40
2016,07,24,07,44,16.50
2016,07,24,07,45,16.60
2016,07,24,07,46,16.70
2016,07,24,07,47,16.70
2016,07,24,07,48,16.70
2016,07,24,07,49,16.80
2016,07,24,07,50,16.80
2016,07,24,07,51,16.80
2016,07,24,07,52,16.80
2016,07,24,07,53,16.90
2016,07,24,07,54,16.90
2016,07,24,07,55,16.90
2016,07,24,07,56,17.00
2016,07,24,07,57,17.00
2016,07,24,07,58,17.10
2016,07,24,07,59,17.10
2016,07,24,08,00,17.10
2016,07,24,08,01,17.20
2016,07,24,08,02,17.20
2016,07,24,08,03,17.30
2016,07,24,08,04,17.30
2016,07,24,08,05,17.30
2016,07,24,08,06,17.40
2016,07,24,08,07,17.40
2016,07,24,08,08,17.50
2016,07,24,08,09,17.60
2016,07,24,08,10,17.60
2016,07,24,08,11,17.70
2016,07,24,08,12,17.80
2016,07,24,08,13,17.80
2016,07,24,08,14,17.90
2016,07,24,08,15,17.90
2016,07,24,08,16,18.00
2016,07,24,08,17,18.10
2016,07,24,08,18,18.10
2016,07,24,08,19,18.10
2016,07,24,08,20,18.10
2016,07,24,08,21,18.10
2016,07,24,08,22,18.00
2016,07,24,08,23,18.00
2016,07,24,08,24,17.90
2016,07,24,08,25,17.90
2016,07,24,08,26,17.90
2016,07,24,08,27,17.90
2016,07,24,08,28,17.90
2016,07,24,08,29,17.90
2016,07,24,08,30,17.90
2016,07,24,08,31,18.00
2016,07,24,08,32,18.00
2016,07,24,08,33,18.10
2016,07,24,08,34,18.10
2016,07,24,08,35,18.10
2016,07,24,08,36,18.20
2016,07,24,08,37,18.20
2016,07,24,08,38,18.20
2016,07,24,08,39,18.20
2016,07,24,08,40,18.30
2016,07,24,08,41,18.40
2016,07,24,08,42,18.40
2016,07,24,08,43,18.50
2016,07,24,08,44,18.50
2016,07,24,08,45,18.60
2016,07,24,08,46,18.60
2016,07,24,08,47,18.60
2016,07,24,08,48,18.60
2016,07,24,08,49,18.60
2016,07,24,08,50,18.70
2016,07,24,08,51,18.70
2016,07,24,08,52,18.60
2016,07,24,08,53,18.60
2016,07,24,08,54,18.60
2016,07,24,08,55,18.60
2016,07,24,08,56,18.50
2016,07,24,08,57,18.50
2016,07,24,08,58,18.60
2016,07,24,08,59,18.60
2016,07,24,09,00,18.60
2016,07,24,09,01,18.60
2016,07,24,09,02,18.70
2016,07,24,09,03,18.70
2016,07,24,09,04,18.70
2016,07,24,09,05,18.70
2016,07,24,09,06,18.70
2016,07,24,09,07,18.70
2016,07,24,09,08,18.70
2016,07,24,09,09,18.70
2016,07,24,09,10,18.70
2016,07,24,09,11,18.70
2016,07,24,09,12,18.70
2016,07,24,09,13,18.70
2016,07,24,09,14,18.70
2016,07,24,09,15,18.60
2016,07,24,09,16,18.60
2016,07,24,09,17,18.60
2016,07,24,09,18,18.60
2016,07,24,09,19,18.70
2016,07,24,09,20,18.70
2016,07,24,09,21,18.70
2016,07,24,09,22,18.70
2016,07,24,09,23,18.70
2016,07,24,09,24,18.70
2016,07,24,09,25,18.70
2016,07,24,09,26,18.60
2016,07,24,09,27,18.60
2016,07,24,09,28,18.60
2016,07,24,09,29,18.60
2016,07,24,09,30,18.60
2016,07,24,09,31,18.60
2016,07,24,09,32,18.60
2016,07,24,09,33,18.60
2016,07,24,09,34,18.60
2016,07,24,09,35,18.60
2016,07,24,09,36,18.60
2016,07,24,09,37,18.60
2016,07,24,09,38,18.60
2016,07,24,09,39,18.70
2016,07,24,09,40,18.70
2016,07,24,09,41,18.70
2016,07,24,09,42,18.70
2016,07,24,09,43,18.80
2016,07,24,09,44,18.80
2016,07,24,09,45,18.80
2016,07,24,09,46,18.80
2016,07,24,09,47,18.80
2016,07,24,09,48,18.80
2016,07,24,09,49,18.80
2016,07,24,09,50,18.80
2016,07,24,09,51,18.70
2016,07,24,09,52,18.70
2016,07,24,09,53,18.70
2016,07,24,09,54,18.60
2016,07,24,09,55,18.60
2016,07,24,09,56,18.60
2016,07,24,09,57,18.60
2016,07,24,09,58,18.60
2016,07,24,09,59,18.60
2016,07,24,10,00,18.60
2016,07,24,10,01,18.70
2016,07,24,10,02,18.70
2016,07,24,10,03,18.70
2016,07,24,10,04,18.80
2016,07,24,10,05,18.90
2016,07,24,10,06,18.90
2016,07,24,10,07,18.90
2016,07,24,10,08,18.90
2016,07,24,10,09,18.90
2016,07,24,10,10,18.90
2016,07,24,10,11,18.90
2016,07,24,10,12,18.90
2016,07,24,10,13,18.90
2016,07,24,10,14,18.90
2016,07,24,10,15,18.90
2016,07,24,10,16,18.90
2016,07,24,10,17,18.90
2016,07,24,10,18,19.00
2016,07,24,10,19,19.00
2016,07,24,10,20,19.00
2016,07,24,10,21,19.10
2016,07,24,10,22,19.10
2016,07,24,10,23,19.10
2016,07,24,10,24,19.10
2016,07,24,10,25,19.10
2016,07,24,10,26,19.10
2016,07,24,10,27,19.00
2016,07,24,10,28,19.00
2016,07,24,10,29,19.00
2016,07,24,10,30,19.10
2016,07,24,10,31,19.10
2016,07,24,10,32,19.10
2016,07,24,10,33,19.20
2016,07,24,10,34,19.20
2016,07,24,10,35,19.30
2016,07,24,10,36,19.30
2016,07,24,10,37,19.30
2016,07,24,10,38,19.30
2016,07,24,10,39,19.30
2016,07,24,10,40,19.30
2016,07,24,10,41,19.30
2016,07,24,10,42,19.30
2016,07,24,10,43,19.30
2016,07,24,10,44,19.30
2016,07,24,10,45,19.30
2016,07,24,10,46,19.30
2016,07,24,10,47,19.20
2016,07,24,10,48,19.20
2016,07,24,10,49,19.20
2016,07,24,10,50,19.20
2016,07,24,10,51,19.20
2016,07,24,10,52,19.20
2016,07,24,10,53,19.30
2016,07,24,10,54,19.30
2016,07,24,10,55,19.40
2016,07,24,10,56,19.40
2016,07,24,10,57,19.40
2016,07,24,10,58,19.40
2016,07,24,10,59,19.40
2016,07,24,11,00,19.40
2016,07,24,11,01,19.50
2016,07,24,11,02,19.60
2016,07,24,11,03,19.60
2016,07,24,11,04,19.70
2016,07,24,11,05,19.70
2016,07,24,11,06,19.70
2016,07,24,11,07,19.70
2016,07,24,11,08,19.60
2016,07,24,11,09,19.60
2016,07,24,11,10,19.60
2016,07,24,11,11,19.60
2016,07,24,11,12,19.70
2016,07,24,11,13,19.80
2016,07,24,11,14,19.80
2016,07,24,11,15,19.90
2016,07,24,11,16,20.00
2016,07,24,11,17,20.20
2016,07,24,11,18,20.30
2016,07,24,11,19,20.40
2016,07,24,11,20,20.50
2016,07,24,11,21,20.60
2016,07,24,11,22,20.70
2016,07,24,11,23,20.80
2016,07,24,11,24,20.90
2016,07,24,11,25,20.90
2016,07,24,11,26,21.00
2016,07,24,11,27,21.00
2016,07,24,11,28,21.10
2016,07,24,11,29,21.20
2016,07,24,11,30,21.20
2016,07,24,11,31,21.20
2016,07,24,11,32,21.20
2016,07,24,11,33,21.30
2016,07,24,11,34,21.40
2016,07,24,11,35,21.40
2016,07,24,11,36,21.40
2016,07,24,11,37,21.40
2016,07,24,11,38,21.40
2016,07,24,11,39,21.40
2016,07,24,11,40,21.50
2016,07,24,11,41,21.60
2016,07,24,11,42,21.60
2016,07,24,11,43,21.70
2016,07,24,11,44,21.80
2016,07,24,11,45,21.80
2016,07,24,11,46,21.80
2016,07,24,11,47,21.80
2016,07,24,11,48,21.80
2016,07,24,11,49,21.70
2016,07,24,11,50,21.70
2016,07,24,11,51,21.70
2016,07,24,11,52,21.60
2016,07,24,11,53,21.50
2016,07,24,11,54,21.50
2016,07,24,11,55,21.50
2016,07,24,11,56,21.50
2016,07,24,11,57,21.40
2016,07,24,11,58,21.40
2016,07,24,11,59,21.40
2016,07,24,12,00,21.30
2016,07,24,12,01,21.30
2016,07,24,12,02,21.30
2016,07,24,12,03,21.30
2016,07,24,12,04,21.30
2016,07,24,12,05,21.30
2016,07,24,12,06,21.40
2016,07,24,12,07,21.50
2016,07,24,12,08,21.60
2016,07,24,12,09,21.70
2016,07,24,12,10,21.70
2016,07,24,12,11,21.80
2016,07,24,12,12,21.80
2016,07,24,12,13,21.90
2016,07,24,12,14,21.90
2016,07,24,12,15,22.10
2016,07,24,12,16,22.20
2016,07,24,12,17,22.20
2016,07,24,12,18,22.30
2016,07,24,12,19,22.30
2016,07,24,12,20,22.30
2016,07,24,12,21,22.30
2016,07,24,12,22,22.30
2016,07,24,12,23,22.30
2016,07,24,12,24,22.30
2016,07,24,12,25,22.30
2016,07,24,12,26,22.20
2016,07,24,12,27,22.20
2016,07,24,12,28,22.20
2016,07,24,12,29,22.20
2016,07,24,12,30,22.30
2016,07,24,12,31,22.30
2016,07,24,12,32,22.30
2016,07,24,12,33,22.30
2016,07,24,12,34,22.20
2016,07,24,12,35,22.20
2016,07,24,12,36,22.20
2016,07,24,12,37,22.10
2016,07,24,12,38,22.20
2016,07,24,12,39,22.20
2016,07,24,12,40,22.20
2016,07,24,12,41,22.30
2016,07,24,12,42,22.30
2016,07,24,12,43,22.30
2016,07,24,12,44,22.40
2016,07,24,12,45,22.50
2016,07,24,12,46,22.70
2016,07,24,12,47,22.70
2016,07,24,12,48,22.60
2016,07,24,12,49,22.60
2016,07,24,12,50,22.60
2016,07,24,12,51,22.50
2016,07,24,12,52,22.50
2016,07,24,12,53,22.40
2016,07,24,12,54,22.40
2016,07,24,12,55,22.40
2016,07,24,12,56,22.40
2016,07,24,12,57,22.40
2016,07,24,12,58,22.40
2016,07,24,12,59,22.40
2016,07,24,13,00,22.40
2016,07,24,13,01,22.30
2016,07,24,13,02,22.30
2016,07,24,13,03,22.20
2016,07,24,13,04,22.10
2016,07,24,13,05,22.10
2016,07,24,13,06,22.10
2016,07,24,13,07,22.10
2016,07,24,13,08,22.10
2016,07,24,13,09,22.10
2016,07,24,13,10,22.10
2016,07,24,13,11,22.10
2016,07,24,13,12,22.10
2016,07,24,13,13,22.30
2016,07,24,13,14,22.50
2016,07,24,13,15,22.60
2016,07,24,13,16,22.70
2016,07,24,13,17,22.80
2016,07,24,13,18,22.80
2016,07,24,13,19,22.90
2016,07,24,13,20,22.90
2016,07,24,13,21,23.00
2016,07,24,13,22,23.00
2016,07,24,13,23,23.10
2016,07,24,13,24,23.20
2016,07,24,13,25,23.30
2016,07,24,13,26,23.30
2016,07,24,13,27,23.40
2016,07,24,13,28,23.40
2016,07,24,13,29,23.40
2016,07,24,13,30,23.40
2016,07,24,13,31,23.40
2016,07,24,13,32,23.40
2016,07,24,13,33,23.50
2016,07,24,13,34,23.60
2016,07,24,13,35,23.60
2016,07,24,13,36,23.70
2016,07,24,13,37,23.70
2016,07,24,13,38,23.70
2016,07,24,13,39,23.60
2016,07,24,13,40,23.60
2016,07,24,13,41,23.60
2016,07,24,13,42,23.60
2016,07,24,13,43,23.60
2016,07,24,13,44,23.60
2016,07,24,13,45,23.70
2016,07,24,13,46,23.70
2016,07,24,13,47,23.70
2016,07,24,13,48,23.70
2016,07,24,13,49,23.60
2016,07,24,13,50,23.60
2016,07,24,13,51,23.60
2016,07,24,13,52,23.60
2016,07,24,13,53,23.70
2016,07,24,13,54,23.80
2016,07,24,13,55,23.80
2016,07,24,13,56,23.80
2016,07,24,13,57,23.80
2016,07,24,13,58,23.80
2016,07,24,13,59,23.70
2016,07,24,14,00,23.70
2016,07,24,14,01,23.70
2016,07,24,14,02,23.70
2016,07,24,14,03,23.70
2016,07,24,14,04,23.80
2016,07,24,14,05,23.90
2016,07,24,14,06,24.00
2016,07,24,14,07,24.10
2016,07,24,14,08,24.10
2016,07,24,14,09,24.10
2016,07,24,14,10,24.20
2016,07,24,14,11,24.20
2016,07,24,14,12,24.30
2016,07,24,14,13,24.30
2016,07,24,14,14,24.30
2016,07,24,14,15,24.40
2016,07,24,14,16,24.40
2016,07,24,14,17,24.30
2016,07,24,14,18,24.20
2016,07,24,14,19,24.20
2016,07,24,14,20,24.20
2016,07,24,14,21,24.30
2016,07,24,14,22,24.40
2016,07,24,14,23,24.50
2016,07,24,14,24,24.60
2016,07,24,14,25,24.60
2016,07,24,14,26,24.70
2016,07,24,14,27,24.80
2016,07,24,14,28,24.80
2016,07,24,14,29,24.70
2016,07,24,14,30,24.70
2016,07,24,14,31,24.60
2016,07,24,14,32,24.50
2016,07,24,14,33,24.40
2016,07,24,14,34,24.30
2016,07,24,14,35,24.20
2016,07,24,14,36,24.20
2016,07,24,14,37,24.20
2016,07,24,14,38,24.20
2016,07,24,14,39,24.30
2016,07,24,14,40,24.40
2016,07,24,14,41,24.40
2016,07,24,14,42,24.40
2016,07,24,14,43,24.50
2016,07,24,14,44,24.60
2016,07,24,14,45,24.70
2016,07,24,14,46,24.80
2016,07,24,14,47,25.00
2016,07,24,14,48,25.00
2016,07,24,14,49,25.10
2016,07,24,14,50,25.20
2016,07,24,14,51,25.20
2016,07,24,14,52,25.30
2016,07,24,14,53,25.30
2016,07,24,14,54,25.30
2016,07,24,14,55,25.40
2016,07,24,14,56,25.40
2016,07,24,14,57,25.50
2016,07,24,14,58,25.50
2016,07,24,14,59,25.40
2016,07,24,15,00,25.30
2016,07,24,15,01,25.20
2016,07,24,15,02,25.10
2016,07,24,15,03,25.00
2016,07,24,15,04,24.90
2016,07,24,15,05,24.90
2016,07,24,15,06,24.90
2016,07,24,15,07,24.90
2016,07,24,15,08,25.00
2016,07,24,15,09,25.00
2016,07,24,15,10,25.00
2016,07,24,15,11,25.00
2016,07,24,15,12,25.00
2016,07,24,15,13,24.90
2016,07,24,15,14,24.90
2016,07,24,15,15,24.90
2016,07,24,15,16,25.00
2016,07,24,15,17,25.10
2016,07,24,15,18,25.10
2016,07,24,15,19,25.10
2016,07,24,15,20,25.10
2016,07,24,15,21,25.00
2016,07,24,15,22,25.00
2016,07,24,15,23,25.00
2016,07,24,15,24,24.90
2016,07,24,15,25,24.90
2016,07,24,15,26,24.90
2016,07,24,15,27,25.00
2016,07,24,15,28,25.00
2016,07,24,15,29,25.10
2016,07,24,15,30,25.10
2016,07,24,15,31,25.10
2016,07,24,15,32,25.20
2016,07,24,15,33,25.20
2016,07,24,15,34,25.30
2016,07,24,15,35,25.30
2016,07,24,15,36,25.30
2016,07,24,15,37,25.40
2016,07,24,15,38,25.50
2016,07,24,15,39,25.50
2016,07,24,15,40,25.60
2016,07,24,15,41,25.60
2016,07,24,15,42,25.60
2016,07,24,15,43,25.70
2016,07,24,15,44,25.80
2016,07,24,15,45,25.80
2016,07,24,15,46,25.80
2016,07,24,15,47,25.80
2016,07,24,15,48,25.80
2016,07,24,15,49,25.80
2016,07,24,15,50,25.90
2016,07,24,15,51,25.90
2016,07,24,15,52,26.00
2016,07,24,15,53,26.00
2016,07,24,15,54,26.10
2016,07,24,15,55,26.10
2016,07,24,15,56,26.10
2016,07,24,15,57,26.10
2016,07,24,15,58,26.10
2016,07,24,15,59,26.10
2016,07,24,16,00,26.10
2016,07,24,16,01,26.10
2016,07,24,16,02,26.20
2016,07,24,16,03,26.20
2016,07,24,16,04,26.30
2016,07,24,16,05,26.40
2016,07,24,16,06,26.40
2016,07,24,16,07,26.50
2016,07,24,16,08,26.50
2016,07,24,16,09,26.50
2016,07,24,16,10,26.50
2016,07,24,16,11,26.40
2016,07,24,16,12,26.40
2016,07,24,16,13,26.40
2016,07,24,16,14,26.30
2016,07,24,16,15,26.40
2016,07,24,16,16,26.40
2016,07,24,16,17,26.50
2016,07,24,16,18,26.60
2016,07,24,16,19,26.60
2016,07,24,16,20,26.70
2016,07,24,16,21,26.60
2016,07,24,16,22,26.60
2016,07,24,16,23,26.60
2016,07,24,16,24,26.60
2016,07,24,16,25,26.60
2016,07,24,16,26,26.60
2016,07,24,16,27,26.60
2016,07,24,16,28,26.60
2016,07,24,16,29,26.60
2016,07,24,16,30,26.70
2016,07,24,16,31,26.70
2016,07,24,16,32,26.70
2016,07,24,16,33,26.80
2016,07,24,16,34,26.80
2016,07,24,16,35,26.80
2016,07,24,16,36,26.80
2016,07,24,16,37,26.80
2016,07,24,16,38,26.70
2016,07,24,16,39,26.70
2016,07,24,16,40,26.80
2016,07,24,16,41,26.80
2016,07,24,16,42,26.90
2016,07,24,16,43,26.90
2016,07,24,16,44,26.90
2016,07,24,16,45,27.00
2016,07,24,16,46,27.10
2016,07,24,16,47,27.10
2016,07,24,16,48,27.10
2016,07,24,16,49,27.10
2016,07,24,16,50,27.10
2016,07,24,16,51,27.00
2016,07,24,16,52,27.00
2016,07,24,16,53,27.00
2016,07,24,16,54,26.90
2016,07,24,16,55,26.90
2016,07,24,16,56,26.90
2016,07,24,16,57,27.00
2016,07,24,16,58,27.00
2016,07,24,16,59,27.10
2016,07,24,17,00,27.10
2016,07,24,17,01,27.10
2016,07,24,17,02,27.10
2016,07,24,17,03,27.10
2016,07,24,17,04,27.10
2016,07,24,17,05,27.10
2016,07,24,17,06,27.10
2016,07,24,17,07,27.10
2016,07,24,17,08,27.10
2016,07,24,17,09,27.10
2016,07,24,17,10,27.10
2016,07,24,17,11,27.10
2016,07,24,17,12,27.10
2016,07,24,17,13,27.10
2016,07,24,17,14,27.10
2016,07,24,17,15,27.10
2016,07,24,17,16,27.10
2016,07,24,17,17,27.20
2016,07,24,17,18,27.20
2016,07,24,17,19,27.20
2016,07,24,17,20,27.20